Time,TemperatureF,DewpointF,PressureIn,WindDirection,WindDirectionDegrees,WindSpeedMPH,WindSpeedGustMPH,Humidity,HourlyPrecipIn,Conditions,Clouds,dailyrainin,SoftwareType,DateUTC
2013-02-08 00:00:00,46.7,45.3,29.86,SW,235,2.5,5.0,95,0.12,,-RA,0.17,VWS V14.01,2013-02-08 05:00:00,
2013-02-08 00:05:00,46.7,45.3,29.86,WSW,257,0.0,6.2,95,0.09,,-RA,0.00,VWS V14.01,2013-02-08 05:05:00,
2013-02-08 00:10:00,46.5,45.2,29.86,SW,233,0.0,6.2,95,0.10,,-RA,0.01,VWS V14.01,2013-02-08 05:10:00,
2013-02-08 00:15:00,46.5,45.2,29.86,SW,228,1.2,1.2,95,0.08,,-RA,0.01,VWS V14.01,2013-02-08 05:15:00,
2013-02-08 00:20:00,46.3,45.0,29.87,WNW,293,0.0,5.0,95,0.08,,-RA,0.01,VWS V14.01,2013-02-08 05:20:00,
2013-02-08 00:25:00,46.1,44.8,29.87,SW,225,2.5,6.2,95,0.08,,-RA,0.01,VWS V14.01,2013-02-08 05:25:00,
2013-02-08 00:30:00,46.0,44.7,29.87,West,278,2.5,2.5,95,0.05,,-RA,0.02,VWS V14.01,2013-02-08 05:30:00,
2013-02-08 00:35:00,45.9,44.5,29.87,NW,312,3.8,6.2,95,0.05,,-RA,0.02,VWS V14.01,2013-02-08 05:35:00,
2013-02-08 00:40:00,45.8,44.5,29.88,West,269,3.8,8.8,95,0.05,,-RA,0.02,VWS V14.01,2013-02-08 05:40:00,
2013-02-08 00:45:00,45.5,44.2,29.88,WSW,240,5.0,5.0,95,0.04,,-RA,0.02,VWS V14.01,2013-02-08 05:45:00,
2013-02-08 00:50:00,45.1,43.8,29.88,West,280,2.5,8.8,95,0.04,,-RA,0.02,VWS V14.01,2013-02-08 05:50:00,
2013-02-08 00:55:00,44.6,43.3,29.88,West,259,5.0,8.8,95,0.04,,-RA,0.02,VWS V14.01,2013-02-08 05:55:00,
2013-02-08 01:00:00,44.2,42.9,29.89,WSW,243,5.0,5.0,95,0.02,,-RA,0.02,VWS V14.01,2013-02-08 06:00:00,
2013-02-08 01:05:00,43.8,42.5,29.89,West,263,3.8,16.2,95,0.02,,-RA,0.02,VWS V14.01,2013-02-08 06:05:00,
2013-02-08 01:10:00,43.3,41.7,29.89,SW,222,6.2,16.2,94,0.02,,-RA,0.02,VWS V14.01,2013-02-08 06:10:00,
2013-02-08 01:15:00,42.8,40.9,29.89,WNW,287,3.8,3.8,93,0.01,,-RA,0.02,VWS V14.01,2013-02-08 06:15:00,
2013-02-08 01:20:00,42.4,40.2,29.89,West,267,3.8,17.5,92,0.01,,-RA,0.02,VWS V14.01,2013-02-08 06:20:00,
2013-02-08 01:25:00,42.1,40.2,29.89,West,264,6.2,17.5,93,0.01,,-RA,0.02,VWS V14.01,2013-02-08 06:25:00,
2013-02-08 01:30:00,41.8,39.9,29.89,North,357,3.8,6.2,93,0.00,,-RA,0.02,VWS V14.01,2013-02-08 06:30:00,
2013-02-08 01:35:00,41.6,39.7,29.89,SW,233,12.5,17.5,93,0.00,,OVC006,0.02,VWS V14.01,2013-02-08 06:35:00,
2013-02-08 01:40:00,41.4,39.5,29.90,West,264,1.2,17.5,93,0.00,,OVC006,0.02,VWS V14.01,2013-02-08 06:40:00,
2013-02-08 01:45:00,41.1,39.2,29.90,WSW,257,2.5,17.5,93,0.00,,OVC006,0.02,VWS V14.01,2013-02-08 06:45:00,
2013-02-08 01:50:00,40.9,39.3,29.90,West,274,1.2,3.8,94,0.00,,OVC006,0.02,VWS V14.01,2013-02-08 06:50:00,
2013-02-08 01:55:00,40.7,38.8,29.90,NW,305,5.0,8.8,93,0.00,,OVC006,0.02,VWS V14.01,2013-02-08 06:55:00,
2013-02-08 02:00:00,40.2,37.8,29.90,West,280,5.0,17.5,91,0.00,,OVC006,0.02,VWS V14.01,2013-02-08 07:00:00,
2013-02-08 02:05:00,40.0,37.6,29.91,West,262,2.5,11.2,91,0.00,,OVC006,0.02,VWS V14.01,2013-02-08 07:05:00,
2013-02-08 02:10:00,39.6,37.2,29.91,WNW,283,3.8,12.5,91,0.00,,OVC006,0.02,VWS V14.01,2013-02-08 07:10:00,
2013-02-08 02:15:00,39.2,37.1,29.92,WNW,285,2.5,12.5,92,0.00,,OVC006,0.02,VWS V14.01,2013-02-08 07:15:00,
2013-02-08 02:20:00,38.8,36.7,29.92,WNW,302,5.0,8.8,92,0.00,,OVC006,0.02,VWS V14.01,2013-02-08 07:20:00,
2013-02-08 02:25:00,38.4,36.3,29.92,WNW,291,6.2,12.5,92,0.00,,OVC006,0.02,VWS V14.01,2013-02-08 07:25:00,
2013-02-08 02:30:00,38.0,35.9,29.92,NW,316,3.8,12.5,92,0.00,,OVC006,0.02,VWS V14.01,2013-02-08 07:30:00,
2013-02-08 02:35:00,37.6,35.5,29.92,West,266,3.8,6.2,92,0.00,,-RA,0.02,VWS V14.01,2013-02-08 07:35:00,
2013-02-08 02:40:00,37.3,35.2,29.92,West,274,13.8,13.8,92,0.00,,-RA,0.02,VWS V14.01,2013-02-08 07:40:00,
2013-02-08 02:45:00,37.0,34.6,29.93,West,274,8.8,17.5,91,0.00,,-RA,0.02,VWS V14.01,2013-02-08 07:45:00,
2013-02-08 02:50:00,36.7,34.3,29.93,West,273,3.8,18.8,91,0.00,,-RA,0.02,VWS V14.01,2013-02-08 07:50:00,
2013-02-08 02:55:00,36.5,34.1,29.93,WSW,256,2.5,18.8,91,0.00,,-RA,0.02,VWS V14.01,2013-02-08 07:55:00,
2013-02-08 03:00:00,36.3,33.9,29.94,WSW,255,2.5,18.8,91,0.00,,-RA,0.02,VWS V14.01,2013-02-08 08:00:00,
2013-02-08 03:05:00,36.1,34.0,29.94,WSW,238,8.8,8.8,92,0.00,,-RA,0.02,VWS V14.01,2013-02-08 08:05:00,
2013-02-08 03:10:00,35.9,33.5,29.94,WNW,293,6.2,11.2,91,0.00,,-RA,0.02,VWS V14.01,2013-02-08 08:10:00,
2013-02-08 03:15:00,35.7,33.3,29.94,WNW,296,1.2,11.2,91,0.00,,-RA,0.02,VWS V14.01,2013-02-08 08:15:00,
2013-02-08 03:20:00,35.6,33.2,29.94,West,260,11.2,11.2,91,0.00,,-RA,0.02,VWS V14.01,2013-02-08 08:20:00,
2013-02-08 03:25:00,35.5,33.1,29.94,NW,319,2.5,11.2,91,0.00,,-RA,0.02,VWS V14.01,2013-02-08 08:25:00,
2013-02-08 03:30:00,35.4,32.8,29.94,WSW,252,5.0,5.0,90,0.00,,-RA,0.02,VWS V14.01,2013-02-08 08:30:00,
2013-02-08 03:35:00,35.4,33.0,29.95,SW,233,3.8,10.0,91,0.00,,OVC008,0.02,VWS V14.01,2013-02-08 08:35:00,
2013-02-08 03:40:00,35.3,32.7,29.95,West,278,1.2,12.5,90,0.00,,OVC008,0.02,VWS V14.01,2013-02-08 08:40:00,
2013-02-08 03:45:00,35.3,32.7,29.95,West,269,1.2,1.2,90,0.00,,OVC008,0.02,VWS V14.01,2013-02-08 08:45:00,
2013-02-08 03:50:00,35.2,32.6,29.95,WNW,302,2.5,11.2,90,0.00,,OVC008,0.02,VWS V14.01,2013-02-08 08:50:00,
2013-02-08 03:55:00,35.2,32.6,29.95,WNW,284,3.8,11.2,90,0.00,,OVC008,0.02,VWS V14.01,2013-02-08 08:55:00,
2013-02-08 04:00:00,35.1,32.5,29.95,West,259,1.2,11.2,90,0.00,,OVC008,0.02,VWS V14.01,2013-02-08 09:00:00,
2013-02-08 04:05:00,35.0,32.4,29.95,West,281,1.2,15.0,90,0.00,,OVC008,0.02,VWS V14.01,2013-02-08 09:05:00,
2013-02-08 04:10:00,34.9,32.3,29.96,NNW,340,3.8,18.8,90,0.00,,OVC008,0.02,VWS V14.01,2013-02-08 09:10:00,
2013-02-08 04:15:00,34.7,32.1,29.96,WNW,292,2.5,18.8,90,0.00,,OVC008,0.02,VWS V14.01,2013-02-08 09:15:00,
2013-02-08 04:20:00,34.6,32.0,29.96,WNW,302,3.8,8.8,90,0.00,,OVC008,0.02,VWS V14.01,2013-02-08 09:20:00,
2013-02-08 04:25:00,34.4,31.5,29.97,WNW,295,2.5,18.8,89,0.00,,OVC008,0.02,VWS V14.01,2013-02-08 09:25:00,
2013-02-08 04:30:00,34.3,31.7,29.97,NW,307,2.5,18.8,90,0.00,,OVC008,0.02,VWS V14.01,2013-02-08 09:30:00,
2013-02-08 04:35:00,34.3,31.7,29.97,WSW,248,3.8,8.8,90,0.00,,OVC011,0.02,VWS V14.01,2013-02-08 09:35:00,
2013-02-08 04:40:00,34.1,31.2,29.97,NW,308,1.2,17.5,89,0.00,,OVC011,0.02,VWS V14.01,2013-02-08 09:40:00,
2013-02-08 04:45:00,34.0,31.1,29.97,NW,315,5.0,17.5,89,0.00,,OVC011,0.02,VWS V14.01,2013-02-08 09:45:00,
2013-02-08 04:50:00,33.8,31.2,29.98,WNW,298,3.8,8.8,90,0.00,,OVC011,0.02,VWS V14.01,2013-02-08 09:50:00,
2013-02-08 04:55:00,33.7,31.1,29.98,North,9,3.8,11.2,90,0.00,,OVC011,0.02,VWS V14.01,2013-02-08 09:55:00,
2013-02-08 05:00:00,33.6,31.0,29.98,NNW,329,5.0,12.5,90,0.00,,OVC011,0.02,VWS V14.01,2013-02-08 10:00:00,
2013-02-08 05:05:00,33.5,30.9,29.99,West,273,3.8,12.5,90,0.00,,OVC011,0.02,VWS V14.01,2013-02-08 10:05:00,
2013-02-08 05:10:00,33.4,30.8,29.99,WNW,300,3.8,16.2,90,0.00,,OVC011,0.02,VWS V14.01,2013-02-08 10:10:00,
2013-02-08 05:15:00,33.3,31.0,29.99,West,259,2.5,17.5,91,0.00,,OVC011,0.02,VWS V14.01,2013-02-08 10:15:00,
2013-02-08 05:20:00,33.2,30.9,29.99,NW,316,3.8,15.0,91,0.00,,OVC011,0.02,VWS V14.01,2013-02-08 10:20:00,
2013-02-08 05:25:00,33.1,30.8,30.00,WNW,288,0.0,15.0,91,0.00,,OVC011,0.02,VWS V14.01,2013-02-08 10:25:00,
2013-02-08 05:30:00,33.1,30.8,30.00,West,274,1.2,18.8,91,0.00,,OVC011,0.02,VWS V14.01,2013-02-08 10:30:00,
2013-02-08 05:35:00,33.0,30.7,30.00,WNW,297,3.8,7.5,91,0.00,,OVC012,0.02,VWS V14.01,2013-02-08 10:35:00,
2013-02-08 05:40:00,33.0,30.9,30.00,WSW,250,1.2,7.5,92,0.00,,OVC012,0.02,VWS V14.01,2013-02-08 10:40:00,
2013-02-08 05:45:00,32.9,30.8,30.00,West,269,3.8,7.5,92,0.00,,OVC012,0.02,VWS V14.01,2013-02-08 10:45:00,
2013-02-08 05:50:00,32.9,30.6,30.01,NNE,12,3.8,7.5,91,0.00,,OVC012,0.02,VWS V14.01,2013-02-08 10:50:00,
2013-02-08 05:55:00,32.9,30.6,30.01,West,270,3.8,13.8,91,0.00,,OVC012,0.02,VWS V14.01,2013-02-08 10:55:00,
2013-02-08 06:00:00,32.9,30.6,30.01,WSW,257,7.5,15.0,91,0.00,,OVC012,0.02,VWS V14.01,2013-02-08 11:00:00,
2013-02-08 06:05:00,32.9,30.6,30.02,North,349,2.5,12.5,91,0.00,,OVC012,0.02,VWS V14.01,2013-02-08 11:05:00,
2013-02-08 06:10:00,32.8,30.5,30.02,NW,324,2.5,12.5,91,0.00,,OVC012,0.02,VWS V14.01,2013-02-08 11:10:00,
2013-02-08 06:15:00,32.8,30.5,30.02,SSW,212,5.0,23.8,91,0.00,,OVC012,0.02,VWS V14.01,2013-02-08 11:15:00,
2013-02-08 06:20:00,32.8,30.5,30.02,NW,311,3.8,13.8,91,0.00,,OVC012,0.02,VWS V14.01,2013-02-08 11:20:00,
2013-02-08 06:25:00,32.7,30.4,30.02,WSW,240,5.0,13.8,91,0.00,,OVC012,0.02,VWS V14.01,2013-02-08 11:25:00,
2013-02-08 06:30:00,32.7,30.4,30.03,WNW,290,2.5,13.8,91,0.00,,OVC012,0.02,VWS V14.01,2013-02-08 11:30:00,
2013-02-08 06:35:00,32.7,30.4,30.03,WNW,288,5.0,7.5,91,0.00,,OVC012,0.02,VWS V14.01,2013-02-08 11:35:00,
2013-02-08 06:40:00,32.6,30.0,30.03,NNW,331,3.8,12.5,90,0.00,,OVC012,0.02,VWS V14.01,2013-02-08 11:40:00,
2013-02-08 06:45:00,32.6,30.0,30.03,North,359,3.8,16.2,90,0.00,,OVC012,0.02,VWS V14.01,2013-02-08 11:45:00,
2013-02-08 06:50:00,32.6,30.3,30.04,West,273,1.2,6.2,91,0.00,,OVC012,0.02,VWS V14.01,2013-02-08 11:50:00,
2013-02-08 06:55:00,32.6,30.3,30.04,WNW,287,6.2,13.8,91,0.00,,OVC012,0.02,VWS V14.01,2013-02-08 11:55:00,
2013-02-08 07:00:00,32.6,30.3,30.04,NW,317,1.2,13.8,91,0.00,,OVC012,0.02,VWS V14.01,2013-02-08 12:00:00,
2013-02-08 07:05:00,32.6,30.3,30.05,SW,225,3.8,10.0,91,0.00,,OVC012,0.02,VWS V14.01,2013-02-08 12:05:00,
2013-02-08 07:10:00,32.6,30.0,30.05,WSW,249,16.2,16.2,90,0.00,,OVC012,0.02,VWS V14.01,2013-02-08 12:10:00,
2013-02-08 07:15:00,32.6,30.0,30.05,West,266,7.5,22.5,90,0.00,,OVC012,0.02,VWS V14.01,2013-02-08 12:15:00,
2013-02-08 07:20:00,32.7,30.1,30.05,West,270,2.5,8.8,90,0.00,,OVC012,0.02,VWS V14.01,2013-02-08 12:20:00,
2013-02-08 07:25:00,32.6,30.0,30.06,WSW,249,3.8,10.0,90,0.00,,OVC012,0.02,VWS V14.01,2013-02-08 12:25:00,
2013-02-08 07:30:00,32.6,30.0,30.06,West,273,2.5,12.5,90,0.00,,OVC012,0.02,VWS V14.01,2013-02-08 12:30:00,
2013-02-08 07:35:00,32.6,30.0,30.06,WNW,287,2.5,8.8,90,0.00,,OVC012,0.02,VWS V14.01,2013-02-08 12:35:00,
2013-02-08 07:40:00,32.6,30.0,30.06,NNW,333,3.8,13.8,90,0.00,,OVC012,0.02,VWS V14.01,2013-02-08 12:40:00,
2013-02-08 07:45:00,32.6,30.0,30.07,West,277,1.2,16.2,90,0.00,,OVC012,0.02,VWS V14.01,2013-02-08 12:45:00,
2013-02-08 07:50:00,32.6,30.0,30.07,West,262,1.2,5.0,90,0.00,,OVC012,0.02,VWS V14.01,2013-02-08 12:50:00,
2013-02-08 07:55:00,32.6,30.0,30.08,WSW,251,2.5,8.8,90,0.00,,OVC012,0.02,VWS V14.01,2013-02-08 12:55:00,
2013-02-08 08:00:00,32.5,29.9,30.08,NW,312,6.2,10.0,90,0.00,,OVC012,0.02,VWS V14.01,2013-02-08 13:00:00,
2013-02-08 08:05:00,32.5,29.6,30.08,WNW,302,5.0,18.8,89,0.00,,OVC012,0.02,VWS V14.01,2013-02-08 13:05:00,
2013-02-08 08:10:00,32.5,29.6,30.08,NW,305,2.5,18.8,89,0.00,,OVC012,0.02,VWS V14.01,2013-02-08 13:10:00,
2013-02-08 08:15:00,32.5,29.6,30.09,NW,311,7.5,18.8,89,0.00,,OVC012,0.02,VWS V14.01,2013-02-08 13:15:00,
2013-02-08 08:20:00,32.5,29.4,30.09,NNE,22,2.5,13.8,88,0.00,,OVC012,0.02,VWS V14.01,2013-02-08 13:20:00,
2013-02-08 08:25:00,32.5,29.6,30.09,WSW,249,3.8,15.0,89,0.00,,OVC012,0.02,VWS V14.01,2013-02-08 13:25:00,
2013-02-08 08:30:00,32.5,29.4,30.10,West,278,5.0,15.0,88,0.00,,OVC012,0.02,VWS V14.01,2013-02-08 13:30:00,
2013-02-08 08:35:00,32.5,29.4,30.10,NW,319,1.2,12.5,88,0.00,,OVC010,0.02,VWS V14.01,2013-02-08 13:35:00,
2013-02-08 08:40:00,32.5,29.1,30.11,NNW,335,6.2,12.5,87,0.00,,OVC010,0.02,VWS V14.01,2013-02-08 13:40:00,
2013-02-08 08:45:00,32.6,29.5,30.11,WNW,301,2.5,12.5,88,0.00,,OVC010,0.02,VWS V14.01,2013-02-08 13:45:00,
2013-02-08 08:50:00,32.6,29.2,30.12,WNW,283,2.5,13.8,87,0.00,,OVC010,0.02,VWS V14.01,2013-02-08 13:50:00,
2013-02-08 08:55:00,32.6,29.2,30.12,NNE,30,3.8,15.0,87,0.00,,OVC010,0.02,VWS V14.01,2013-02-08 13:55:00,
2013-02-08 09:00:00,32.6,29.2,30.12,West,276,3.8,15.0,87,0.00,,OVC010,0.02,VWS V14.01,2013-02-08 14:00:00,
2013-02-08 09:05:00,32.6,28.9,30.12,NNW,329,7.5,12.5,86,0.00,,OVC010,0.02,VWS V14.01,2013-02-08 14:05:00,
2013-02-08 09:10:00,32.7,29.0,30.13,SSW,208,5.0,12.5,86,0.00,,OVC010,0.02,VWS V14.01,2013-02-08 14:10:00,
2013-02-08 09:15:00,32.6,28.9,30.13,NW,321,3.8,15.0,86,0.00,,OVC010,0.02,VWS V14.01,2013-02-08 14:15:00,
2013-02-08 09:20:00,32.6,28.9,30.13,NW,316,1.2,7.5,86,0.00,,OVC010,0.02,VWS V14.01,2013-02-08 14:20:00,
2013-02-08 09:25:00,32.6,28.9,30.13,West,264,5.0,11.2,86,0.00,,OVC010,0.02,VWS V14.01,2013-02-08 14:25:00,
2013-02-08 09:30:00,32.6,28.9,30.14,NNE,15,6.2,11.2,86,0.00,,OVC010,0.02,VWS V14.01,2013-02-08 14:30:00,
2013-02-08 09:35:00,32.6,28.6,30.14,WNW,287,2.5,12.5,85,0.00,,OVC012,0.02,VWS V14.01,2013-02-08 14:35:00,
2013-02-08 09:40:00,32.6,28.6,30.14,West,262,2.5,12.5,85,0.00,,OVC012,0.02,VWS V14.01,2013-02-08 14:40:00,
2013-02-08 09:45:00,32.5,28.5,30.14,North,11,8.8,16.2,85,0.00,,OVC012,0.02,VWS V14.01,2013-02-08 14:45:00,
2013-02-08 09:50:00,32.5,28.8,30.14,NNW,342,3.8,7.5,86,0.00,,OVC012,0.02,VWS V14.01,2013-02-08 14:50:00,
2013-02-08 09:55:00,32.4,28.4,30.15,NW,323,3.8,7.5,85,0.00,,OVC012,0.02,VWS V14.01,2013-02-08 14:55:00,
2013-02-08 10:00:00,32.3,28.3,30.15,WSW,242,2.5,10.0,85,0.00,,OVC012,0.02,VWS V14.01,2013-02-08 15:00:00,
2013-02-08 10:05:00,32.3,28.6,30.15,SW,235,12.5,12.5,86,0.00,,OVC012,0.02,VWS V14.01,2013-02-08 15:05:00,
2013-02-08 10:10:00,32.3,28.6,30.16,West,277,2.5,12.5,86,0.00,,OVC012,0.02,VWS V14.01,2013-02-08 15:10:00,
2013-02-08 10:15:00,32.3,28.6,30.16,North,350,5.0,13.8,86,0.00,,OVC012,0.02,VWS V14.01,2013-02-08 15:15:00,
2013-02-08 10:20:00,32.1,28.1,30.16,WNW,287,2.5,6.2,85,0.00,,OVC012,0.02,VWS V14.01,2013-02-08 15:20:00,
2013-02-08 10:25:00,32.0,28.3,30.17,WNW,287,6.2,15.0,86,0.00,,OVC012,0.02,VWS V14.01,2013-02-08 15:25:00,
2013-02-08 10:30:00,31.9,28.2,30.17,West,274,6.2,15.0,86,0.00,,OVC012,0.02,VWS V14.01,2013-02-08 15:30:00,
2013-02-08 10:35:00,31.8,27.8,30.17,West,276,1.2,12.5,85,0.00,,OVC016,0.02,VWS V14.01,2013-02-08 15:35:00,
2013-02-08 10:40:00,31.8,27.8,30.18,West,281,2.5,16.2,85,0.00,,OVC016,0.02,VWS V14.01,2013-02-08 15:40:00,
2013-02-08 10:45:00,31.7,27.7,30.18,North,8,2.5,16.2,85,0.00,,OVC016,0.02,VWS V14.01,2013-02-08 15:45:00,
2013-02-08 10:50:00,31.7,28.0,30.18,NW,319,6.2,12.5,86,0.00,,OVC013,0.02,VWS V14.01,2013-02-08 15:50:00,
2013-02-08 10:55:00,31.5,27.2,30.18,NW,323,5.0,12.5,84,0.00,,OVC013,0.02,VWS V14.01,2013-02-08 15:55:00,
2013-02-08 11:00:00,31.4,27.4,30.19,WSW,243,2.5,12.5,85,0.00,,OVC013,0.02,VWS V14.01,2013-02-08 16:00:00,
2013-02-08 11:05:00,31.4,27.4,30.19,NNW,344,2.5,6.2,85,0.00,,OVC016,0.02,VWS V14.01,2013-02-08 16:05:00,
2013-02-08 11:10:00,31.4,27.4,30.19,NW,311,1.2,6.2,85,0.00,,OVC013,0.02,VWS V14.01,2013-02-08 16:10:00,
2013-02-08 11:15:00,31.4,27.4,30.19,WNW,294,0.0,6.2,85,0.00,,OVC013,0.02,VWS V14.01,2013-02-08 16:15:00,
2013-02-08 11:20:00,31.4,27.7,30.19,NNW,330,3.8,10.0,86,0.00,,OVC013,0.02,VWS V14.01,2013-02-08 16:20:00,
2013-02-08 11:25:00,31.6,27.9,30.20,West,259,0.0,10.0,86,0.00,,OVC013,0.02,VWS V14.01,2013-02-08 16:25:00,
2013-02-08 11:30:00,31.6,27.9,30.20,NW,316,1.2,16.2,86,0.00,,OVC013,0.02,VWS V14.01,2013-02-08 16:30:00,
2013-02-08 11:35:00,31.6,27.9,30.20,NW,316,6.2,12.5,86,0.00,,OVC015,0.02,VWS V14.01,2013-02-08 16:35:00,
2013-02-08 11:40:00,31.6,27.9,30.20,North,350,2.5,12.5,86,0.00,,OVC015,0.02,VWS V14.01,2013-02-08 16:40:00,
2013-02-08 11:45:00,31.6,27.6,30.21,SW,231,2.5,12.5,85,0.00,,OVC015,0.02,VWS V14.01,2013-02-08 16:45:00,
2013-02-08 11:50:00,31.7,28.0,30.21,WNW,283,2.5,7.5,86,0.00,,OVC015,0.02,VWS V14.01,2013-02-08 16:50:00,
2013-02-08 11:55:00,31.7,28.0,30.21,NNE,19,5.0,10.0,86,0.00,,OVC015,0.02,VWS V14.01,2013-02-08 16:55:00,
2013-02-08 12:00:00,31.7,28.0,30.21,West,266,1.2,10.0,86,0.00,,OVC015,0.02,VWS V14.01,2013-02-08 17:00:00,
2013-02-08 12:05:00,31.7,28.0,30.21,NW,305,1.2,7.5,86,0.00,,OVC015,0.02,VWS V14.01,2013-02-08 17:05:00,
2013-02-08 12:10:00,31.7,27.7,30.21,WNW,283,3.8,8.8,85,0.00,,OVC015,0.02,VWS V14.01,2013-02-08 17:10:00,
2013-02-08 12:15:00,31.9,28.2,30.21,NW,323,2.5,8.8,86,0.00,,OVC015,0.02,VWS V14.01,2013-02-08 17:15:00,
2013-02-08 12:20:00,32.0,28.0,30.21,West,277,2.5,10.0,85,0.00,,OVC015,0.02,VWS V14.01,2013-02-08 17:20:00,
2013-02-08 12:25:00,32.2,28.2,30.21,NW,308,2.5,11.2,85,0.00,,OVC015,0.02,VWS V14.01,2013-02-08 17:25:00,
2013-02-08 12:30:00,32.3,28.3,30.21,NNW,329,3.8,12.5,85,0.00,,OVC015,0.02,VWS V14.01,2013-02-08 17:30:00,
2013-02-08 12:35:00,32.3,28.0,30.21,SW,222,2.5,17.5,84,0.00,,OVC017,0.02,VWS V14.01,2013-02-08 17:35:00,
2013-02-08 12:40:00,32.3,28.3,30.21,NE,41,3.8,17.5,85,0.00,,OVC017,0.02,VWS V14.01,2013-02-08 17:40:00,
2013-02-08 12:45:00,32.3,28.0,30.21,South,171,2.5,17.5,84,0.00,,OVC017,0.02,VWS V14.01,2013-02-08 17:45:00,
2013-02-08 12:50:00,32.4,28.1,30.21,West,277,2.5,10.0,84,0.00,,OVC017,0.02,VWS V14.01,2013-02-08 17:50:00,
2013-02-08 12:55:00,32.5,28.2,30.21,NNE,32,2.5,10.0,84,0.00,,OVC017,0.02,VWS V14.01,2013-02-08 17:55:00,
2013-02-08 13:00:00,32.6,28.3,30.20,West,275,2.5,10.0,84,0.00,,OVC017,0.02,VWS V14.01,2013-02-08 18:00:00,
2013-02-08 13:05:00,32.5,28.2,30.20,WNW,283,0.0,13.8,84,0.00,,OVC017,0.02,VWS V14.01,2013-02-08 18:05:00,
2013-02-08 13:10:00,32.4,27.8,30.21,WNW,293,5.0,16.2,83,0.00,,OVC017,0.02,VWS V14.01,2013-02-08 18:10:00,
2013-02-08 13:15:00,32.4,28.1,30.21,WNW,282,1.2,16.2,84,0.00,,OVC017,0.02,VWS V14.01,2013-02-08 18:15:00,
2013-02-08 13:20:00,32.4,28.1,30.21,NW,321,2.5,6.2,84,0.00,,OVC017,0.02,VWS V14.01,2013-02-08 18:20:00,
2013-02-08 13:25:00,32.5,27.9,30.21,WNW,295,3.8,10.0,83,0.00,,OVC017,0.02,VWS V14.01,2013-02-08 18:25:00,
2013-02-08 13:30:00,32.4,27.8,30.22,WSW,256,5.0,12.5,83,0.00,,OVC017,0.02,VWS V14.01,2013-02-08 18:30:00,
2013-02-08 13:35:00,32.3,27.4,30.22,WNW,288,2.5,16.2,82,0.00,,OVC017,0.02,VWS V14.01,2013-02-08 18:35:00,
2013-02-08 13:40:00,32.3,27.7,30.22,WNW,292,7.5,16.2,83,0.00,,OVC017,0.02,VWS V14.01,2013-02-08 18:40:00,
2013-02-08 13:45:00,32.2,27.6,30.22,WNW,285,2.5,16.2,83,0.00,,OVC017,0.02,VWS V14.01,2013-02-08 18:45:00,
2013-02-08 13:50:00,32.1,27.8,30.22,West,272,1.2,13.8,84,0.00,,OVC017,0.02,VWS V14.01,2013-02-08 18:50:00,
2013-02-08 13:55:00,31.9,27.3,30.23,WNW,283,3.8,13.8,83,0.00,,OVC017,0.02,VWS V14.01,2013-02-08 18:55:00,
2013-02-08 14:00:00,31.8,27.5,30.23,West,274,6.2,15.0,84,0.00,,OVC017,0.02,VWS V14.01,2013-02-08 19:00:00,
2013-02-08 14:05:00,31.8,27.5,30.23,WSW,256,5.0,12.5,84,0.00,,OVC017,0.02,VWS V14.01,2013-02-08 19:05:00,
2013-02-08 14:10:00,31.8,27.5,30.23,NW,320,1.2,12.5,84,0.00,,OVC017,0.02,VWS V14.01,2013-02-08 19:10:00,
2013-02-08 14:15:00,31.8,27.5,30.23,NW,311,0.0,12.5,84,0.00,,OVC017,0.02,VWS V14.01,2013-02-08 19:15:00,
2013-02-08 14:20:00,31.9,27.9,30.23,West,281,3.8,5.0,85,0.00,,OVC017,0.02,VWS V14.01,2013-02-08 19:20:00,
2013-02-08 14:25:00,31.9,27.6,30.23,West,269,3.8,6.2,84,0.00,,OVC017,0.02,VWS V14.01,2013-02-08 19:25:00,
2013-02-08 14:30:00,32.0,27.4,30.23,WNW,287,2.5,13.8,83,0.00,,OVC017,0.02,VWS V14.01,2013-02-08 19:30:00,
2013-02-08 14:35:00,32.1,27.5,30.23,West,271,1.2,10.0,83,0.00,,OVC017,0.02,VWS V14.01,2013-02-08 19:35:00,
2013-02-08 14:40:00,32.1,27.5,30.23,West,270,2.5,10.0,83,0.00,,OVC017,0.02,VWS V14.01,2013-02-08 19:40:00,
2013-02-08 14:45:00,32.2,27.9,30.23,East,84,0.0,15.0,84,0.00,,OVC017,0.02,VWS V14.01,2013-02-08 19:45:00,
2013-02-08 14:50:00,32.4,27.8,30.24,WNW,288,1.2,6.2,83,0.00,,OVC017,0.02,VWS V14.01,2013-02-08 19:50:00,
2013-02-08 14:55:00,32.4,27.8,30.24,West,269,0.0,10.0,83,0.00,,OVC017,0.02,VWS V14.01,2013-02-08 19:55:00,
2013-02-08 15:00:00,32.5,27.9,30.24,WNW,285,0.0,10.0,83,0.00,,OVC017,0.02,VWS V14.01,2013-02-08 20:00:00,
2013-02-08 15:05:00,32.4,27.8,30.24,WNW,287,1.2,10.0,83,0.00,,OVC017,0.02,VWS V14.01,2013-02-08 20:05:00,
2013-02-08 15:10:00,32.4,28.1,30.24,West,267,0.0,10.0,84,0.00,,OVC017,0.02,VWS V14.01,2013-02-08 20:10:00,
2013-02-08 15:15:00,32.3,27.7,30.24,NNW,333,2.5,10.0,83,0.00,,OVC017,0.02,VWS V14.01,2013-02-08 20:15:00,
2013-02-08 15:20:00,32.1,27.5,30.25,ENE,65,5.0,7.5,83,0.00,,OVC017,0.02,VWS V14.01,2013-02-08 20:20:00,
2013-02-08 15:25:00,32.1,27.8,30.25,West,274,1.2,8.8,84,0.00,,OVC017,0.02,VWS V14.01,2013-02-08 20:25:00,
2013-02-08 15:30:00,32.0,27.7,30.25,WNW,282,1.2,10.0,84,0.00,,OVC017,0.02,VWS V14.01,2013-02-08 20:30:00,
2013-02-08 15:35:00,32.0,27.7,30.25,NW,313,2.5,11.2,84,0.00,,OVC017,0.02,VWS V14.01,2013-02-08 20:35:00,
2013-02-08 15:40:00,31.9,27.9,30.25,NW,314,2.5,12.5,85,0.00,,OVC017,0.02,VWS V14.01,2013-02-08 20:40:00,
2013-02-08 15:45:00,32.0,27.7,30.25,WSW,249,2.5,12.5,84,0.00,,OVC017,0.02,VWS V14.01,2013-02-08 20:45:00,
2013-02-08 15:50:00,31.9,27.6,30.26,NW,314,2.5,10.0,84,0.00,,OVC017,0.02,VWS V14.01,2013-02-08 20:50:00,
2013-02-08 15:55:00,31.9,27.6,30.26,NW,311,2.5,11.2,84,0.00,,OVC017,0.02,VWS V14.01,2013-02-08 20:55:00,
2013-02-08 16:00:00,31.9,27.6,30.27,WSW,257,1.2,11.2,84,0.00,,OVC017,0.02,VWS V14.01,2013-02-08 21:00:00,
2013-02-08 16:05:00,32.0,28.0,30.27,SW,229,8.8,10.0,85,0.00,,OVC017,0.02,VWS V14.01,2013-02-08 21:05:00,
2013-02-08 16:10:00,31.9,27.6,30.27,WSW,250,2.5,10.0,84,0.00,,OVC017,0.02,VWS V14.01,2013-02-08 21:10:00,
2013-02-08 16:15:00,31.9,27.6,30.27,NNW,335,1.2,10.0,84,0.00,,OVC017,0.02,VWS V14.01,2013-02-08 21:15:00,
2013-02-08 16:20:00,32.0,27.7,30.27,WSW,240,1.2,7.5,84,0.00,,OVC017,0.02,VWS V14.01,2013-02-08 21:20:00,
2013-02-08 16:25:00,32.0,27.7,30.27,West,271,2.5,11.2,84,0.00,,OVC017,0.02,VWS V14.01,2013-02-08 21:25:00,
2013-02-08 16:30:00,32.0,27.7,30.28,SW,229,6.2,11.2,84,0.00,,OVC017,0.02,VWS V14.01,2013-02-08 21:30:00,
2013-02-08 16:35:00,32.1,28.1,30.28,WNW,291,1.2,12.5,85,0.00,,OVC019,0.02,VWS V14.01,2013-02-08 21:35:00,
2013-02-08 16:40:00,32.1,27.8,30.28,West,271,8.8,12.5,84,0.00,,OVC019,0.02,VWS V14.01,2013-02-08 21:40:00,
2013-02-08 16:45:00,32.1,27.5,30.28,SW,234,1.2,12.5,83,0.00,,OVC019,0.02,VWS V14.01,2013-02-08 21:45:00,
2013-02-08 16:50:00,32.2,27.6,30.28,West,273,0.0,7.5,83,0.00,,OVC019,0.02,VWS V14.01,2013-02-08 21:50:00,
2013-02-08 16:55:00,32.2,27.9,30.28,West,280,1.2,7.5,84,0.00,,OVC019,0.02,VWS V14.01,2013-02-08 21:55:00,
2013-02-08 17:00:00,32.3,28.0,30.28,WSW,246,1.2,7.5,84,0.00,,OVC019,0.02,VWS V14.01,2013-02-08 22:00:00,
2013-02-08 17:05:00,32.3,27.7,30.28,West,267,5.0,8.8,83,0.00,,OVC019,0.02,VWS V14.01,2013-02-08 22:05:00,
2013-02-08 17:10:00,32.3,27.7,30.28,WNW,303,1.2,8.8,83,0.00,,OVC019,0.02,VWS V14.01,2013-02-08 22:10:00,
2013-02-08 17:15:00,32.4,27.8,30.28,WNW,288,0.0,8.8,83,0.00,,OVC019,0.02,VWS V14.01,2013-02-08 22:15:00,
2013-02-08 17:20:00,32.4,27.8,30.29,WNW,285,1.2,7.5,83,0.00,,OVC019,0.02,VWS V14.01,2013-02-08 22:20:00,
2013-02-08 17:25:00,32.4,27.8,30.30,WSW,258,0.0,7.5,83,0.00,,OVC019,0.02,VWS V14.01,2013-02-08 22:25:00,
2013-02-08 17:30:00,32.4,27.8,30.30,West,274,2.5,8.8,83,0.00,,OVC019,0.02,VWS V14.01,2013-02-08 22:30:00,
2013-02-08 17:35:00,32.4,27.8,30.30,WNW,298,2.5,7.5,83,0.00,,OVC019,0.02,VWS V14.01,2013-02-08 22:35:00,
2013-02-08 17:40:00,32.4,27.8,30.30,West,261,0.0,7.5,83,0.00,,OVC019,0.02,VWS V14.01,2013-02-08 22:40:00,
2013-02-08 17:45:00,32.3,27.7,30.30,WNW,284,1.2,7.5,83,0.00,,OVC019,0.02,VWS V14.01,2013-02-08 22:45:00,
2013-02-08 17:50:00,32.3,27.7,30.31,WNW,290,1.2,7.5,83,0.00,,OVC019,0.02,VWS V14.01,2013-02-08 22:50:00,
2013-02-08 17:55:00,32.3,27.7,30.31,WSW,251,6.2,7.5,83,0.00,,OVC019,0.02,VWS V14.01,2013-02-08 22:55:00,
2013-02-08 18:00:00,32.3,27.7,30.31,West,273,1.2,7.5,83,0.00,,OVC019,0.02,VWS V14.01,2013-02-08 23:00:00,
2013-02-08 18:05:00,32.3,27.7,30.31,West,264,0.0,7.5,83,0.00,,OVC019,0.02,VWS V14.01,2013-02-08 23:05:00,
2013-02-08 18:10:00,32.3,28.0,30.32,WSW,249,3.8,7.5,84,0.00,,OVC019,0.02,VWS V14.01,2013-02-08 23:10:00,
2013-02-08 18:15:00,32.2,27.6,30.32,WNW,301,3.8,11.2,83,0.00,,OVC019,0.02,VWS V14.01,2013-02-08 23:15:00,
2013-02-08 18:20:00,32.2,27.6,30.32,WSW,250,8.8,8.8,83,0.00,,OVC019,0.02,VWS V14.01,2013-02-08 23:20:00,
2013-02-08 18:25:00,32.2,27.9,30.32,NW,308,2.5,8.8,84,0.00,,OVC019,0.02,VWS V14.01,2013-02-08 23:25:00,
2013-02-08 18:30:00,32.1,27.8,30.32,West,272,0.0,8.8,84,0.00,,OVC019,0.02,VWS V14.01,2013-02-08 23:30:00,
2013-02-08 18:35:00,32.1,27.8,30.32,WSW,245,2.5,2.5,84,0.00,,OVC021,0.02,VWS V14.01,2013-02-08 23:35:00,
2013-02-08 18:40:00,32.1,27.8,30.33,WNW,282,0.0,2.5,84,0.00,,OVC021,0.02,VWS V14.01,2013-02-08 23:40:00,
2013-02-08 18:45:00,32.0,27.7,30.33,WSW,255,0.0,5.0,84,0.00,,OVC021,0.02,VWS V14.01,2013-02-08 23:45:00,
2013-02-08 18:50:00,32.0,27.7,30.33,West,271,0.0,6.2,84,0.00,,OVC021,0.02,VWS V14.01,2013-02-08 23:50:00,
2013-02-08 18:55:00,32.0,28.0,30.33,West,273,1.2,6.2,85,0.00,,OVC021,0.02,VWS V14.01,2013-02-08 23:55:00,
2013-02-08 19:00:00,32.0,28.0,30.34,West,269,5.0,6.2,85,0.00,,OVC021,0.02,VWS V14.01,2013-02-09 00:00:00,
2013-02-08 19:05:00,32.0,28.0,30.34,WSW,243,10.0,10.0,85,0.00,,OVC023,0.02,VWS V14.01,2013-02-09 00:05:00,
2013-02-08 19:10:00,31.9,27.9,30.35,WNW,298,1.2,10.0,85,0.00,,OVC023,0.02,VWS V14.01,2013-02-09 00:10:00,
2013-02-08 19:15:00,31.9,27.6,30.35,SW,224,0.0,10.0,84,0.00,,OVC023,0.02,VWS V14.01,2013-02-09 00:15:00,
2013-02-08 19:20:00,31.9,27.9,30.35,SSE,150,1.2,2.5,85,0.00,,OVC023,0.02,VWS V14.01,2013-02-09 00:20:00,
2013-02-08 19:25:00,31.8,27.8,30.35,West,272,0.0,7.5,85,0.00,,OVC023,0.02,VWS V14.01,2013-02-09 00:25:00,
2013-02-08 19:30:00,31.8,27.8,30.35,West,260,1.2,7.5,85,0.00,,OVC023,0.02,VWS V14.01,2013-02-09 00:30:00,
2013-02-08 19:35:00,31.8,27.8,30.35,WSW,249,2.5,7.5,85,0.00,,OVC023,0.02,VWS V14.01,2013-02-09 00:35:00,
2013-02-08 19:40:00,31.8,27.8,30.36,SW,231,6.2,7.5,85,0.00,,OVC023,0.02,VWS V14.01,2013-02-09 00:40:00,
2013-02-08 19:45:00,31.7,27.7,30.35,West,269,0.0,7.5,85,0.00,,OVC023,0.02,VWS V14.01,2013-02-09 00:45:00,
2013-02-08 19:50:00,31.7,27.7,30.35,West,276,1.2,2.5,85,0.00,,OVC023,0.02,VWS V14.01,2013-02-09 00:50:00,
2013-02-08 19:55:00,31.7,27.7,30.35,SW,225,0.0,2.5,85,0.00,,OVC023,0.02,VWS V14.01,2013-02-09 00:55:00,
2013-02-08 20:00:00,31.6,27.6,30.35,West,261,1.2,5.0,85,0.00,,OVC023,0.02,VWS V14.01,2013-02-09 01:00:00,
2013-02-08 20:05:00,31.7,27.7,30.36,WSW,245,0.0,5.0,85,0.00,,OVC023,0.02,VWS V14.01,2013-02-09 01:05:00,
2013-02-08 20:10:00,31.6,27.6,30.36,WNW,301,0.0,5.0,85,0.00,,OVC023,0.02,VWS V14.01,2013-02-09 01:10:00,
2013-02-08 20:15:00,31.6,27.6,30.36,WNW,287,0.0,5.0,85,0.00,,OVC023,0.02,VWS V14.01,2013-02-09 01:15:00,
2013-02-08 20:20:00,31.6,27.3,30.37,NW,304,1.2,2.5,84,0.00,,OVC023,0.02,VWS V14.01,2013-02-09 01:20:00,
2013-02-08 20:25:00,31.7,27.4,30.37,NNW,332,2.5,7.5,84,0.00,,OVC023,0.02,VWS V14.01,2013-02-09 01:25:00,
2013-02-08 20:30:00,31.7,27.4,30.37,WSW,255,1.2,7.5,84,0.00,,OVC023,0.02,VWS V14.01,2013-02-09 01:30:00,
2013-02-08 20:35:00,31.7,27.4,30.37,West,266,1.2,6.2,84,0.00,,OVC025,0.02,VWS V14.01,2013-02-09 01:35:00,
2013-02-08 20:40:00,31.7,27.1,30.37,NNW,327,1.2,6.2,83,0.00,,OVC025,0.02,VWS V14.01,2013-02-09 01:40:00,
2013-02-08 20:45:00,31.7,27.1,30.37,NW,317,0.0,6.2,83,0.00,,OVC025,0.02,VWS V14.01,2013-02-09 01:45:00,
2013-02-08 20:50:00,31.7,27.1,30.38,WSW,241,1.2,2.5,83,0.00,,OVC025,0.02,VWS V14.01,2013-02-09 01:50:00,
2013-02-08 20:55:00,31.6,27.0,30.38,NW,323,0.0,2.5,83,0.00,,OVC025,0.02,VWS V14.01,2013-02-09 01:55:00,
2013-02-08 21:00:00,31.6,27.0,30.37,NW,323,1.2,2.5,83,0.00,,OVC025,0.02,VWS V14.01,2013-02-09 02:00:00,
2013-02-08 21:05:00,31.6,27.3,30.38,West,280,1.2,2.5,84,0.00,,OVC025,0.02,VWS V14.01,2013-02-09 02:05:00,
2013-02-08 21:10:00,31.5,26.9,30.38,NW,311,1.2,2.5,83,0.00,,OVC025,0.02,VWS V14.01,2013-02-09 02:10:00,
2013-02-08 21:15:00,31.5,26.6,30.38,NW,314,1.2,3.8,82,0.00,,OVC025,0.02,VWS V14.01,2013-02-09 02:15:00,
2013-02-08 21:20:00,31.5,26.6,30.38,NW,321,0.0,7.5,82,0.00,,OVC025,0.02,VWS V14.01,2013-02-09 02:20:00,
2013-02-08 21:25:00,31.4,26.5,30.38,NE,50,1.2,7.5,82,0.00,,OVC025,0.02,VWS V14.01,2013-02-09 02:25:00,
2013-02-08 21:30:00,31.4,26.8,30.38,North,356,0.0,7.5,83,0.00,,OVC025,0.02,VWS V14.01,2013-02-09 02:30:00,
2013-02-08 21:35:00,31.3,26.5,30.37,North,349,1.2,3.8,82,0.00,,OVC023,0.02,VWS V14.01,2013-02-09 02:35:00,
2013-02-08 21:40:00,31.2,26.6,30.38,North,5,0.0,3.8,83,0.00,,OVC023,0.02,VWS V14.01,2013-02-09 02:40:00,
2013-02-08 21:45:00,30.9,25.8,30.37,NNW,330,2.5,3.8,81,0.00,,OVC023,0.02,VWS V14.01,2013-02-09 02:45:00,
2013-02-08 21:50:00,30.7,25.9,30.38,NNW,330,1.2,1.2,82,0.00,,OVC023,0.02,VWS V14.01,2013-02-09 02:50:00,
2013-02-08 21:55:00,30.5,26.0,30.37,NNW,335,2.5,7.5,83,0.00,,OVC023,0.02,VWS V14.01,2013-02-09 02:55:00,
2013-02-08 22:00:00,30.3,25.8,30.37,WNW,297,0.0,7.5,83,0.00,,OVC023,0.02,VWS V14.01,2013-02-09 03:00:00,
2013-02-08 22:05:00,30.0,25.5,30.37,NW,312,0.0,2.5,83,0.00,,OVC023,0.02,VWS V14.01,2013-02-09 03:05:00,
2013-02-08 22:10:00,29.7,25.2,30.37,NW,321,1.2,2.5,83,0.00,,OVC023,0.02,VWS V14.01,2013-02-09 03:10:00,
2013-02-08 22:15:00,29.6,25.1,30.38,NNW,329,2.5,2.5,83,0.00,,OVC023,0.02,VWS V14.01,2013-02-09 03:15:00,
2013-02-08 22:20:00,29.4,25.2,30.37,NNW,330,1.2,1.2,84,0.00,,OVC023,0.02,VWS V14.01,2013-02-09 03:20:00,
2013-02-08 22:25:00,29.2,25.0,30.38,NW,323,1.2,2.5,84,0.00,,OVC023,0.02,VWS V14.01,2013-02-09 03:25:00,
2013-02-08 22:30:00,29.1,25.2,30.38,North,359,1.2,2.5,85,0.00,,OVC023,0.02,VWS V14.01,2013-02-09 03:30:00,
2013-02-08 22:35:00,28.9,25.0,30.38,NW,308,0.0,0.0,85,0.00,,OVC021,0.02,VWS V14.01,2013-02-09 03:35:00,
2013-02-08 22:40:00,28.6,25.0,30.38,WNW,302,0.0,1.2,86,0.00,,OVC021,0.02,VWS V14.01,2013-02-09 03:40:00,
2013-02-08 22:45:00,28.5,24.9,30.39,WNW,302,0.0,1.2,86,0.00,,OVC021,0.02,VWS V14.01,2013-02-09 03:45:00,
2013-02-08 22:50:00,28.3,24.7,30.39,NW,305,0.0,1.2,86,0.00,,OVC021,0.02,VWS V14.01,2013-02-09 03:50:00,
2013-02-08 22:55:00,28.3,24.7,30.39,NW,305,0.0,1.2,86,0.00,,OVC021,0.02,VWS V14.01,2013-02-09 03:55:00,
2013-02-08 23:00:00,28.1,24.7,30.40,NW,304,0.0,1.2,87,0.00,,OVC021,0.02,VWS V14.01,2013-02-09 04:00:00,
2013-02-08 23:05:00,28.0,24.6,30.40,NW,305,0.0,0.0,87,0.00,,OVC021,0.02,VWS V14.01,2013-02-09 04:05:00,
2013-02-08 23:10:00,27.9,24.5,30.40,WNW,298,0.0,0.0,87,0.00,,OVC021,0.02,VWS V14.01,2013-02-09 04:10:00,
2013-02-08 23:15:00,27.8,24.4,30.40,WNW,298,0.0,0.0,87,0.00,,OVC021,0.02,VWS V14.01,2013-02-09 04:15:00,
2013-02-08 23:20:00,27.8,24.7,30.40,WNW,300,0.0,0.0,88,0.00,,OVC021,0.02,VWS V14.01,2013-02-09 04:20:00,
2013-02-08 23:25:00,27.8,24.7,30.40,WNW,300,0.0,0.0,88,0.00,,OVC021,0.02,VWS V14.01,2013-02-09 04:25:00,
2013-02-08 23:30:00,27.7,24.6,30.40,NW,304,0.0,0.0,88,0.00,,OVC021,0.02,VWS V14.01,2013-02-09 04:30:00,
2013-02-08 23:35:00,27.7,24.3,30.40,North,349,1.2,1.2,87,0.00,,OVC023,0.02,VWS V14.01,2013-02-09 04:35:00,
2013-02-08 23:40:00,27.7,24.6,30.40,West,277,1.2,2.5,88,0.00,,OVC023,0.02,VWS V14.01,2013-02-09 04:40:00,
2013-02-08 23:45:00,27.6,24.5,30.40,NW,318,1.2,2.5,88,0.00,,OVC023,0.02,VWS V14.01,2013-02-09 04:45:00,
2013-02-08 23:50:00,27.6,24.5,30.39,NNW,331,0.0,2.5,88,0.00,,OVC023,0.02,VWS V14.01,2013-02-09 04:50:00,
2013-02-08 23:55:00,27.5,24.4,30.39,NNE,23,0.0,2.5,88,0.00,,OVC023,0.02,VWS V14.01,2013-02-09 04:55:00,